Location: Unspecified
(0.0000°N, 0.0000°E)
Time: 15:15:07
(UTC+02:00)

SJ-6B - Visible Passes

Search period start: 24 May 2015 00:00
Search period end: 03 June 2015 00:00
Orbit: 514 x 591 km, 97.8° (Epoch: 23 May)

Date Brightness Start Highest point End Pass type
(mag) Time Alt. Az. Time Alt. Az. Time Alt. Az.
28 May 6.1 21:19:58 10° WSW 21:21:08 11° W 21:21:57 10° W visible
29 May 6.0 21:15:55 10° SW 21:17:43 12° W 21:19:14 10° WNW visible
30 May 5.9 21:12:05 10° SW 21:14:18 14° W 21:16:16 10° WNW visible
31 May 5.8 21:08:20 10° SW 21:10:53 15° W 21:13:11 10° WNW visible
01 Jun 5.7 07:31:55 10° ENE 07:34:14 16° E 07:36:45 10° SE visible
01 Jun 5.7 21:04:39 10° SW 21:07:28 17° W 21:10:04 10° WNW visible
02 Jun 5.7 07:28:48 10° ENE 07:30:49 14° E 07:33:03 10° SE visible
02 Jun 5.6 21:01:01 10° SSW 21:04:03 19° W 21:06:53 10° NW visible
